| |
Missouri Department of Transportation

Social Media Facebook Twitter Flickr Instagram YouTube RSS

Current METAR Information for All MoDOT Locations 
AWOS Home - General Info for all Airports
Current AWOS for all Airports - Current METAR for all Airports
Glossary - Disclaimer - Other Links


Automated Weather Observation System
Date: 03-30-2017
 
Location Current METAR Record
HANNIBAL METAR KHAE 302238Z AUTO 23007KT 2SM DZ BKN005 OVC013 11/11 A2957 RMK AO2
HARRISONVILLE  No current data available
LEBANON  No current data available
MALDEN  No current data available
MARSHALL METAR KMHL 302259Z AUTO 24005KT 10SM OVC047 13/09 A2961 RMK AO2
MARYVILLE  No current data available
MEXICO  No current data available
MOBERLY  No current data available
NEVADA  No current data available
PIEDMONT  No current data available
SIKESTON  No current data available
SULLIVAN  No current data available
WARSAW METAR KRAW 302241Z AUTO 22007KT 10SM SCT019 BKN025 BKN031 10/06 A2962 RMK AO2
About Us
How Do I...
Contact Us
Missouri Department of Transportation
Central Office
105 W. Capitol Avenue
Jefferson City, MO 65102
1-888-ASK-MODOT (275-6636)
1-866-831-6277 (Motor Carrier Services)
Driver's License Offices
horz_bar
| | |
Missouri State Government
© 2013 Missouri Department of Transportation. All Rights Reserved.   Privacy Policy.
 
 
 
 
RSS FeedYoutubeBlogFlickrTwitter Facebook